Ravenna, OH

9:50 PM EDT on October 22, 2017 (GMT -0400)
Ravenna

Weather History for KPOV - May, 2014

Change the Weather History Date:

Tuesday, May 13, 2014

  Actual Average (KCAK) Record (KCAK)
Temperature  
Mean Temperature 72 °F -  
Max Temperature 84 °F 68 °F 89 °F (1991)
Min Temperature 60 °F 47 °F 27 °F (1996)
Cooling Degree Days 7    
Growing Degree Days 22 (Base 50)    
Moisture  
Dew Point 61 °F    
Average Humidity 68    
Maximum Humidity 100    
Minimum Humidity 39    
Precipitation  
Precipitation 0.00 in - - ()
Sea Level Pressure  
Sea Level Pressure 30.05 in    
Wind  
Wind Speed 4 mph (SSW)    
Max Wind Speed 12 mph    
Max Gust Speed 21 mph    
Visibility 10 miles    
Events      
Averages and records for this station are not official NWS values.
T = Trace of Precipitation, MM = Missing Value Source: NWS Daily Summary

Daily Weather History Graph

Daily Weather History Graph

Search for Another Location

Airport or City:

Trip Planner

Search our weather history database for the weather conditions in past years. The results will help you decide how hot, cold, wet, or windy it might be!

Date:

Astronomy

May. 13, 2014 Rise Set
Actual Time 6:08 AM EDT 8:34 PM EDT
Civil Twilight 5:37 AM EDT 9:05 PM EDT
Nautical Twilight 4:58 AM EDT 9:44 PM EDT
Astronomical Twilight 4:15 AM EDT 10:28 PM EDT
Moon 7:34 PM EDT (5/13) 5:25 AM EDT (5/13)
Length of Visible Light 15h 28m
Length of Day
14h 26m
Waxing Gibbous, 98% of the Moon is Illuminated
May 13
Waxing Gibbous
May 14
Full
May 21
Last Quarter
May 28
New
Jun 5
First Quarter

Hourly Weather History & Observations

Time (EDT) Temp. Heat Index Dew Point Humidity Pressure Visibility Wind Dir Wind Speed Gust Speed Precip Events Conditions
12:16 AM 62.6 °F - - N/A% 30.06 in 10.0 mi SE 3.5 mph - N/A   Scattered Clouds
12:36 AM 62.6 °F - - N/A% 30.07 in 10.0 mi SSE 4.6 mph - N/A   Scattered Clouds
12:56 AM 62.6 °F - 62.8 °F 100% 30.08 in 10.0 mi SSE 4.6 mph - N/A   Clear
1:16 AM 62.8 °F - 63.0 °F 100% 30.09 in 10.0 mi SE 5.8 mph - N/A   Clear
1:36 AM 62.6 °F - 62.8 °F 100% 30.08 in 10.0 mi SE 3.5 mph - N/A   Mostly Cloudy
2:16 AM 62.6 °F - 62.6 °F 100% 30.07 in 10.0 mi Calm Calm - N/A   Mostly Cloudy
2:36 AM 62.1 °F - 62.4 °F 100% 30.07 in 10.0 mi Calm Calm - N/A   Scattered Clouds
2:56 AM 62.1 °F - 62.4 °F 100% 30.04 in 10.0 mi Calm Calm - N/A   Scattered Clouds
3:36 AM 62.6 °F - 62.6 °F 100% 30.03 in 10.0 mi Calm Calm - N/A   Clear
3:55 AM 62.6 °F - 62.6 °F 100% 30.03 in 10.0 mi Calm Calm - N/A   Clear
4:16 AM 62.4 °F - 62.8 °F 100% 30.03 in 10.0 mi Calm Calm - N/A   Clear
4:36 AM 63.0 °F - 63.1 °F 100% 30.04 in 10.0 mi Calm Calm - N/A   Clear
4:56 AM 61.5 °F - - N/A% 30.05 in 10.0 mi Calm Calm - N/A   Clear
5:16 AM 61.3 °F - - N/A% 30.05 in 10.0 mi Calm Calm - N/A   Clear
5:36 AM 60.6 °F - - N/A% 30.05 in 10.0 mi Calm Calm - N/A   Clear
5:56 AM 61.0 °F - - N/A% 30.06 in 10.0 mi ESE 4.6 mph - N/A   Clear
6:16 AM 61.2 °F - - N/A% 30.07 in 10.0 mi SE 4.6 mph - N/A   Clear
6:36 AM 61.2 °F - - N/A% 30.07 in 10.0 mi ESE 3.5 mph - N/A   Clear
6:56 AM 61.7 °F - - N/A% 30.08 in 10.0 mi Calm Calm - N/A   Clear
7:16 AM 62.1 °F - - N/A% 30.08 in 10.0 mi ESE 4.6 mph - N/A   Clear
7:36 AM 62.8 °F - 63.0 °F 100% 30.08 in 10.0 mi Calm Calm - N/A   Clear
7:55 AM 63.5 °F - 63.5 °F 100% 30.08 in 10.0 mi Calm Calm - N/A   Clear
8:16 AM 65.3 °F - 65.5 °F 100% 30.08 in 10.0 mi SE 4.6 mph - N/A   Clear
9:16 AM 71.2 °F - 69.1 °F 93% 30.08 in 10.0 mi SSE 3.5 mph - N/A   Clear
9:35 AM 73.2 °F - 64.8 °F 75% 30.08 in 10.0 mi Calm Calm - N/A   Clear
9:56 AM 74.3 °F - 64.0 °F 70% 30.08 in 10.0 mi South 3.5 mph - N/A   Clear
10:16 AM 75.4 °F - 64.2 °F 68% 30.08 in 10.0 mi Calm Calm - N/A   Clear
10:56 AM 77.5 °F - 64.4 °F 64% 30.08 in 10.0 mi South 3.5 mph - N/A   Clear
12:36 PM 81.0 °F 82.3 °F 63.3 °F 55% 30.07 in 10.0 mi SW 8.1 mph - N/A   Mostly Cloudy
12:56 PM 81.7 °F 82.9 °F 63.1 °F 53% 30.07 in 10.0 mi SSW 10.4 mph 16.1 mph N/A   Unknown
1:36 PM 82.2 °F 82.7 °F 60.6 °F 48% 30.06 in 10.0 mi SW 5.8 mph 18.4 mph N/A   Scattered Clouds
1:56 PM 83.3 °F 83.7 °F 61.2 °F 47% 30.05 in 10.0 mi SSW 9.2 mph - N/A   Scattered Clouds
2:16 PM 83.3 °F 83.2 °F 59.2 °F 44% 30.05 in 10.0 mi SW 11.5 mph 16.1 mph N/A   Scattered Clouds
2:36 PM 83.7 °F 83.6 °F 59.5 °F 44% 30.04 in 10.0 mi SW 10.4 mph 16.1 mph N/A   Scattered Clouds
2:56 PM 84.4 °F 84.6 °F 60.8 °F 45% 30.03 in 10.0 mi SSW 8.1 mph 16.1 mph N/A   Scattered Clouds
3:16 PM 84.2 °F 84.0 °F 59.4 °F 43% 30.02 in 10.0 mi SSW 6.9 mph - N/A   Scattered Clouds
3:36 PM 84.4 °F 84.0 °F 58.6 °F 42% 30.01 in 10.0 mi SSW 9.2 mph 18.4 mph N/A   Scattered Clouds
3:56 PM 84.7 °F 84.0 °F 58.1 °F 40% 30.00 in 10.0 mi SSW 6.9 mph 18.4 mph N/A   Clear
4:16 PM 83.8 °F 83.4 °F 58.5 °F 42% 30.00 in 10.0 mi South 9.2 mph - N/A   Scattered Clouds
4:36 PM 84.9 °F 84.1 °F 57.7 °F 39% 30.00 in 10.0 mi SW 11.5 mph 17.3 mph N/A   Scattered Clouds
4:56 PM 84.7 °F 84.0 °F 57.9 °F 40% 30.00 in 10.0 mi SSW 10.4 mph 16.1 mph N/A   Scattered Clouds
5:16 PM 84.6 °F 83.9 °F 57.9 °F 40% 30.01 in 10.0 mi SW 11.5 mph 20.7 mph N/A   Scattered Clouds
5:36 PM 84.2 °F 83.5 °F 57.6 °F 40% 30.01 in 10.0 mi SSW 9.2 mph 18.4 mph N/A   Scattered Clouds
5:56 PM 84.7 °F 84.2 °F 58.5 °F 41% 30.02 in 10.0 mi SW 9.2 mph - N/A   Scattered Clouds
6:16 PM 84.4 °F 83.5 °F 57.2 °F 39% 30.02 in 10.0 mi SSW 8.1 mph 17.3 mph N/A   Mostly Cloudy
6:36 PM 83.1 °F 82.6 °F 57.2 °F 41% 30.01 in 10.0 mi SSW 8.1 mph - N/A   Mostly Cloudy
6:56 PM 82.9 °F 82.6 °F 57.9 °F 42% 30.01 in 10.0 mi SW 8.1 mph - N/A   Scattered Clouds
7:16 PM 83.1 °F 82.4 °F 56.7 °F 40% 30.02 in 10.0 mi WSW 11.5 mph 17.3 mph N/A   Clear
7:36 PM 82.4 °F 82.0 °F 57.2 °F 42% 30.02 in 10.0 mi WSW 8.1 mph - N/A   Clear
7:56 PM 81.7 °F 81.5 °F 57.4 °F 43% 30.03 in 10.0 mi SW 3.5 mph - N/A   Scattered Clouds
8:16 PM 80.2 °F 80.7 °F 58.1 °F 47% 30.03 in 10.0 mi Calm Calm - N/A   Scattered Clouds
8:36 PM 79.0 °F - 58.8 °F 50% 30.03 in 10.0 mi Calm Calm - N/A   Mostly Cloudy
8:56 PM 73.2 °F - 60.3 °F 64% 30.06 in 10.0 mi NNW 11.5 mph - N/A   Overcast
9:16 PM 72.0 °F - 60.6 °F 67% 30.09 in 10.0 mi West 11.5 mph 16.1 mph N/A   Overcast
9:36 PM 68.0 °F - 62.6 °F 83% 30.09 in 10.0 mi NW 3.5 mph - N/A   Overcast
9:56 PM 67.6 °F - 62.4 °F 83% 30.08 in 10.0 mi Calm Calm - N/A   Mostly Cloudy
10:16 PM 68.7 °F - 62.1 °F 79% 30.07 in 10.0 mi NW 3.5 mph - N/A   Scattered Clouds
10:56 PM 67.3 °F - 61.9 °F 83% 30.07 in 10.0 mi Calm Calm - N/A   Scattered Clouds
11:16 PM 67.1 °F - 61.7 °F 83% 30.07 in 10.0 mi Calm Calm - N/A   Scattered Clouds
11:36 PM 65.5 °F - 65.7 °F 100% 30.07 in 10.0 mi WNW 3.5 mph - N/A   Clear
11:56 PM 64.8 °F - 65.1 °F 100% 30.08 in 10.0 mi Calm Calm - N/A   Clear